Regional Weather Roundup
Issued by NWS Jackson, KY

Home | Current Version | Previous Version | Graphics & Text | Print | Product List | Glossary On
Versions: 1 2 3 4 5 6 7 8 9 10 11 12 13 14 15 16 17 18 19 20 21 22 23 24 25 26 27 28 29 30 31 32 33 34 35 36 37 38 39 40 41 42 43 44 45 46 47 48 49 50
000
ASUS43 KJKL 251610
RWRJKL

EAST KENTUCKY HOURLY WEATHER ROUNDUP
NATIONAL WEATHER SERVICE JACKSON KY
1200 PM EDT MON MAY 25 2015

NOTE: "FAIR" INDICATES FEW OR NO CLOUDS BELOW 12,000 FEET WITH
NO SIGNIFICANT WEATHER AND/OR OBSTRUCTIONS TO VISIBILITY.

* THESE REPORTS ARE NOT UNDER NWS QUALITY CONTROL AND MAY NOT
  REPORT WEATHER SUCH AS PRECIPITATION AND FOG.

KYZ079-080-083-085-087-088-110-112-115-119-120-251700
...EASTERN KENTUCKY...

CITY           SKY/WX    TMP DP  RH WIND       PRES   REMARKS
JACKSON        SUNNY     78  57  48 VRB5      30.23S
LONDON         PTSUNNY   78  55  44 S10G21    30.22F
SOMERSET*      CLOUDY    77  59  53 S10G17    30.22S
MONTICELLO*    PTSUNNY   79  64  59 S12       30.23F
MIDDLESBORO*   PTSUNNY   77  59  54 S8        30.26S
HARLAN APT*    SUNNY     79  54  41 S7        30.26F
HAZARD APT*    SUNNY     81  55  41 S12G18    30.23S
BLACK MTN*       N/A     68  57  68 SW2         N/A
PIKEVILLE APT* SUNNY     79  59  50 SE7       30.24S
BIG SANDY*     SUNNY     79  58  48 S5        30.23F
MOREHEAD APT*  MOSUNNY   81  59  47 SW13      30.22R
$$

KYZ035-036-041-042-044-050-067-078-099-251700
...CENTRAL KENTUCKY...

CITY           SKY/WX    TMP DP  RH WIND       PRES   REMARKS
MT STERLING*   PTSUNNY   79  61  53 W10G22    30.21R
FLEMING/MASON* CLOUDY    79  61  53 SW21G30   30.19S
DANVILLE*      CLOUDY    73  59  60 SW10G17   30.22R
RICHMOND*      CLOUDY    77  59  53 SW9G17    30.20S
LEXINGTON      CLOUDY    76  59  55 SW18G30   30.19R
FRANKFORT      CLOUDY    74  61  63 SW14      30.17R
$$

KYZ091>093-OHZ055-061-077-WVZ005-015-034-035-042-251700
...SOUTHERN OHIO/WEST VIRGINIA...

CITY           SKY/WX    TMP DP  RH WIND       PRES   REMARKS
COVINGTON      CLOUDY    69  64  84 S13       30.15S
COLUMBUS       PTSUNNY   78  60  53 SW14G22   30.14S
DAYTON         LGT RAIN  70  64  81 SW23G31   30.12S
WILMINGTON     PTSUNNY   76  57  51 SW24G41   30.12F
HUNTINGTON     MOSUNNY   80  57  45 S12G18    30.19F
CHARLESTON     MOSUNNY   82  55  39 VRB7      30.21F
PINEVILLE*     SUNNY     78  57  47 MISG      30.32S
BECKLEY        SUNNY     75  50  41 CALM      30.31S
BLUEFIELD      SUNNY     76  53  44 SE8       30.34S
$$

VAZ002-007-008-TNZ017-027-036-066-071-251700
...SOUTHWEST VIRGINIA/EAST TENNESSEE...

CITY           SKY/WX    TMP DP  RH WIND       PRES   REMARKS
WISE*          SUNNY     73  50  43 S10G16    30.33S
JONESVILLE*    SUNNY     77  55  47 S8        30.29F
ABINGDON*      SUNNY     77  54  44 SW8       30.31F
BRISTOL        MOSUNNY   79  54  41 S9        30.28F
KNOXVILLE      MOSUNNY   80  56  43 S8        30.24F
OAK RIDGE      MOSUNNY   80  59  48 VRB6      30.26F
CROSSVILLE     CLOUDY    72  60  66 S10       30.27S
NASHVILLE      LGT RAIN  68  66  93 S6        30.19S
$$

...KEY TO REMARKS...
VSB - VISIBILITY IN MILES
WCI - WIND CHILL INDEX
HX  - HEAT INDEX

$$


USA.gov is the U.S. government's official web portal to all federal, state and local government web resources and services.